Location: Lincolnton
(35.4660°N, 81.2500°W)
Time: 06:20:51
(UTC-04:00)

Hubble Space Telescope - Visible Passes

Search period start: 02 August 2015 00:00
Search period end: 12 August 2015 00:00
Orbit: 541 x 545 km, 28.5° (Epoch: 31 July)

Date Brightness Start Highest point End Pass type
(mag) Time Alt. Az. Time Alt. Az. Time Alt. Az.
02 Aug 3.4 22:34:30 10° SW 22:34:32 10° SW 22:34:32 10° SW visible
03 Aug 2.8 22:25:24 10° SW 22:26:39 17° SW 22:26:39 17° SW visible
04 Aug 2.3 22:16:20 10° SW 22:18:35 23° SSW 22:18:35 23° SSW visible
05 Aug 1.9 22:07:20 10° WSW 22:10:23 28° SSW 22:10:23 28° SSW visible
06 Aug 1.7 21:58:22 10° WSW 22:02:02 31° S 22:02:04 31° S visible
07 Aug 1.7 21:49:24 10° WSW 21:53:06 31° S 21:53:39 30° SSE visible
08 Aug 1.8 21:40:30 10° WSW 21:44:09 30° S 21:45:12 26° SSE visible
09 Aug 1.9 21:31:36 10° WSW 21:35:13 29° S 21:36:42 23° SSE visible
10 Aug 2.1 21:22:44 10° WSW 21:26:16 27° S 21:28:11 19° SSE visible
11 Aug 2.2 21:13:55 10° WSW 21:17:18 24° S 21:19:39 15° SSE visible
